Time,TemperatureF,DewpointF,PressureIn,WindDirection,WindDirectionDegrees,WindSpeedMPH,WindSpeedGustMPH,Humidity,HourlyPrecipIn,Conditions,Clouds,dailyrainin,SoftwareType,DateUTC
2013-02-25 00:00:00,45.6,30.4,29.95,East,101,2.0,4.0,55,0.00,,CLR,0.00,VWS V14.01,2013-02-25 06:00:00,
2013-02-25 00:05:00,45.5,30.3,29.95,ESE,105,5.0,7.0,55,0.00,,CLR,0.00,VWS V14.01,2013-02-25 06:05:00,
2013-02-25 00:10:00,45.5,30.3,29.95,ESE,102,1.0,5.0,55,0.00,,CLR,0.00,VWS V14.01,2013-02-25 06:10:00,
2013-02-25 00:15:00,45.4,30.2,29.94,East,90,1.0,5.0,55,0.00,,CLR,0.00,VWS V14.01,2013-02-25 06:15:00,
2013-02-25 00:20:00,45.4,30.6,29.94,NW,323,2.0,7.0,56,0.00,,CLR,0.00,VWS V14.01,2013-02-25 06:20:00,
2013-02-25 00:25:00,45.3,30.5,29.93,ESE,109,3.0,7.0,56,0.00,,CLR,0.00,VWS V14.01,2013-02-25 06:25:00,
2013-02-25 00:30:00,45.3,30.5,29.94,ENE,71,3.0,8.0,56,0.00,,CLR,0.00,VWS V14.01,2013-02-25 06:30:00,
2013-02-25 00:35:00,45.1,30.4,29.94,South,174,4.0,5.0,56,0.00,,CLR,0.00,VWS V14.01,2013-02-25 06:35:00,
2013-02-25 00:40:00,45.1,30.4,29.94,ESE,116,3.0,7.0,56,0.00,,CLR,0.00,VWS V14.01,2013-02-25 06:40:00,
2013-02-25 00:45:00,45.0,30.3,29.94,SE,128,1.0,7.0,56,0.00,,CLR,0.00,VWS V14.01,2013-02-25 06:45:00,
2013-02-25 00:50:00,44.9,30.2,29.94,ESE,102,0.0,7.0,56,0.00,,CLR,0.00,VWS V14.01,2013-02-25 06:50:00,
2013-02-25 00:55:00,44.9,30.2,29.94,East,101,2.0,7.0,56,0.00,,CLR,0.00,VWS V14.01,2013-02-25 06:55:00,
2013-02-25 01:00:00,44.8,30.5,29.94,SE,129,2.0,7.0,57,0.00,,CLR,0.00,VWS V14.01,2013-02-25 07:00:00,
2013-02-25 01:05:00,44.7,30.4,29.94,East,86,1.0,5.0,57,0.00,,CLR,0.00,VWS V14.01,2013-02-25 07:05:00,
2013-02-25 01:10:00,44.7,30.4,29.94,ENE,74,0.0,6.0,57,0.00,,CLR,0.00,VWS V14.01,2013-02-25 07:10:00,
2013-02-25 01:15:00,44.7,30.4,29.94,East,97,1.0,4.0,57,0.00,,CLR,0.00,VWS V14.01,2013-02-25 07:15:00,
2013-02-25 01:20:00,44.7,30.4,29.93,ENE,61,0.0,3.0,57,0.00,,CLR,0.00,VWS V14.01,2013-02-25 07:20:00,
2013-02-25 01:25:00,44.7,30.4,29.94,East,90,0.0,3.0,57,0.00,,CLR,0.00,VWS V14.01,2013-02-25 07:25:00,
2013-02-25 01:30:00,44.7,30.4,29.94,ENE,69,0.0,3.0,57,0.00,,CLR,0.00,VWS V14.01,2013-02-25 07:30:00,
2013-02-25 01:35:00,44.6,30.3,29.94,ESE,109,1.0,5.0,57,0.00,,CLR,0.00,VWS V14.01,2013-02-25 07:35:00,
2013-02-25 01:40:00,44.5,30.2,29.94,ESE,108,0.0,4.0,57,0.00,,CLR,0.00,VWS V14.01,2013-02-25 07:40:00,
2013-02-25 01:45:00,44.5,30.2,29.94,NNE,32,0.0,3.0,57,0.00,,CLR,0.00,VWS V14.01,2013-02-25 07:45:00,
2013-02-25 01:50:00,44.5,30.2,29.93,NE,44,1.0,7.0,57,0.00,,CLR,0.00,VWS V14.01,2013-02-25 07:50:00,
2013-02-25 01:55:00,44.4,30.1,29.93,East,87,0.0,5.0,57,0.00,,CLR,0.00,VWS V14.01,2013-02-25 07:55:00,
2013-02-25 02:00:00,44.4,30.1,29.93,ESE,110,7.0,7.0,57,0.00,,CLR,0.00,VWS V14.01,2013-02-25 08:00:00,
2013-02-25 02:05:00,44.5,30.2,29.92,ENE,61,0.0,5.0,57,0.00,,CLR,0.00,VWS V14.01,2013-02-25 08:05:00,
2013-02-25 02:10:00,44.5,30.2,29.92,ENE,67,2.0,5.0,57,0.00,,CLR,0.00,VWS V14.01,2013-02-25 08:10:00,
2013-02-25 02:15:00,44.4,30.1,29.92,SE,144,5.0,8.0,57,0.00,,CLR,0.00,VWS V14.01,2013-02-25 08:15:00,
2013-02-25 02:20:00,44.3,30.0,29.92,South,190,1.0,3.0,57,0.00,,CLR,0.00,VWS V14.01,2013-02-25 08:20:00,
2013-02-25 02:25:00,44.3,30.0,29.92,NE,51,2.0,6.0,57,0.00,,CLR,0.00,VWS V14.01,2013-02-25 08:25:00,
2013-02-25 02:30:00,44.3,30.0,29.91,ENE,71,4.0,5.0,57,0.00,,CLR,0.00,VWS V14.01,2013-02-25 08:30:00,
2013-02-25 02:35:00,44.2,30.0,29.91,East,82,3.0,5.0,57,0.00,,CLR,0.00,VWS V14.01,2013-02-25 08:35:00,
2013-02-25 02:40:00,44.2,30.0,29.91,ESE,103,3.0,8.0,57,0.00,,CLR,0.00,VWS V14.01,2013-02-25 08:40:00,
2013-02-25 02:45:00,44.3,30.0,29.91,ESE,115,2.0,10.0,57,0.00,,CLR,0.00,VWS V14.01,2013-02-25 08:45:00,
2013-02-25 02:50:00,44.2,30.0,29.91,East,88,3.0,7.0,57,0.00,,CLR,0.00,VWS V14.01,2013-02-25 08:50:00,
2013-02-25 02:55:00,44.2,30.0,29.92,SSE,147,0.0,3.0,57,0.00,,CLR,0.00,VWS V14.01,2013-02-25 08:55:00,
2013-02-25 03:00:00,44.1,29.9,29.92,ENE,70,5.0,5.0,57,0.00,,CLR,0.00,VWS V14.01,2013-02-25 09:00:00,
2013-02-25 03:05:00,44.0,29.8,29.92,ENE,72,1.0,5.0,57,0.00,,CLR,0.00,VWS V14.01,2013-02-25 09:05:00,
2013-02-25 03:10:00,43.8,29.6,29.92,ENE,77,0.0,4.0,57,0.00,,CLR,0.00,VWS V14.01,2013-02-25 09:10:00,
2013-02-25 03:15:00,43.7,29.5,29.93,ENE,71,0.0,4.0,57,0.00,,CLR,0.00,VWS V14.01,2013-02-25 09:15:00,
2013-02-25 03:20:00,43.7,29.5,29.92,NE,35,0.0,2.0,57,0.00,,CLR,0.00,VWS V14.01,2013-02-25 09:20:00,
2013-02-25 03:25:00,43.7,29.5,29.92,ENE,63,0.0,4.0,57,0.00,,CLR,0.00,VWS V14.01,2013-02-25 09:25:00,
2013-02-25 03:30:00,43.5,29.3,29.92,ESE,123,2.0,3.0,57,0.00,,CLR,0.00,VWS V14.01,2013-02-25 09:30:00,
2013-02-25 03:35:00,43.5,29.3,29.91,ESE,121,1.0,4.0,57,0.00,,CLR,0.00,VWS V14.01,2013-02-25 09:35:00,
2013-02-25 03:40:00,43.4,29.2,29.91,NNE,32,2.0,4.0,57,0.00,,CLR,0.00,VWS V14.01,2013-02-25 09:40:00,
2013-02-25 03:45:00,43.3,29.1,29.90,North,360,3.0,4.0,57,0.00,,CLR,0.00,VWS V14.01,2013-02-25 09:45:00,
2013-02-25 03:50:00,43.3,29.1,29.90,ESE,105,0.0,5.0,57,0.00,,CLR,0.00,VWS V14.01,2013-02-25 09:50:00,
2013-02-25 03:55:00,43.3,29.1,29.91,ENE,64,0.0,5.0,57,0.00,,CLR,0.00,VWS V14.01,2013-02-25 09:55:00,
2013-02-25 04:00:00,43.2,29.0,29.90,NE,43,0.0,5.0,57,0.00,,CLR,0.00,VWS V14.01,2013-02-25 10:00:00,
2013-02-25 04:05:00,43.1,28.9,29.90,ENE,73,1.0,5.0,57,0.00,,CLR,0.00,VWS V14.01,2013-02-25 10:05:00,
2013-02-25 04:10:00,43.1,28.9,29.90,NE,46,4.0,4.0,57,0.00,,CLR,0.00,VWS V14.01,2013-02-25 10:10:00,
2013-02-25 04:15:00,42.9,28.7,29.90,NE,55,0.0,5.0,57,0.00,,CLR,0.00,VWS V14.01,2013-02-25 10:15:00,
2013-02-25 04:20:00,43.0,28.8,29.90,ESE,107,1.0,5.0,57,0.00,,CLR,0.00,VWS V14.01,2013-02-25 10:20:00,
2013-02-25 04:25:00,42.9,28.7,29.90,East,92,0.0,7.0,57,0.00,,CLR,0.00,VWS V14.01,2013-02-25 10:25:00,
2013-02-25 04:30:00,42.9,28.7,29.90,ESE,109,1.0,7.0,57,0.00,,CLR,0.00,VWS V14.01,2013-02-25 10:30:00,
2013-02-25 04:35:00,42.8,28.6,29.90,NE,45,3.0,4.0,57,0.00,,CLR,0.00,VWS V14.01,2013-02-25 10:35:00,
2013-02-25 04:40:00,42.6,28.9,29.90,NE,39,2.0,5.0,58,0.00,,CLR,0.00,VWS V14.01,2013-02-25 10:40:00,
2013-02-25 04:45:00,42.5,28.8,29.90,ESE,116,0.0,4.0,58,0.00,,CLR,0.00,VWS V14.01,2013-02-25 10:45:00,
2013-02-25 04:50:00,42.4,28.7,29.90,NE,45,4.0,4.0,58,0.00,,CLR,0.00,VWS V14.01,2013-02-25 10:50:00,
2013-02-25 04:55:00,42.3,28.6,29.90,NE,49,2.0,5.0,58,0.00,,CLR,0.00,VWS V14.01,2013-02-25 10:55:00,
2013-02-25 05:00:00,42.1,28.4,29.90,ENE,57,3.0,5.0,58,0.00,,CLR,0.00,VWS V14.01,2013-02-25 11:00:00,
2013-02-25 05:05:00,42.0,28.7,29.90,ESE,111,2.0,3.0,59,0.00,,CLR,0.00,VWS V14.01,2013-02-25 11:05:00,
2013-02-25 05:10:00,42.0,28.7,29.89,ENE,57,0.0,3.0,59,0.00,,CLR,0.00,VWS V14.01,2013-02-25 11:10:00,
2013-02-25 05:15:00,41.8,28.5,29.89,ESE,103,4.0,4.0,59,0.00,,CLR,0.00,VWS V14.01,2013-02-25 11:15:00,
2013-02-25 05:20:00,41.8,28.5,29.89,NNE,19,2.0,7.0,59,0.00,,CLR,0.00,VWS V14.01,2013-02-25 11:20:00,
2013-02-25 05:25:00,41.8,28.5,29.89,ESE,109,0.0,5.0,59,0.00,,CLR,0.00,VWS V14.01,2013-02-25 11:25:00,
2013-02-25 05:30:00,41.9,28.6,29.89,North,5,1.0,8.0,59,0.00,,CLR,0.00,VWS V14.01,2013-02-25 11:30:00,
2013-02-25 05:35:00,42.0,28.7,29.90,ESE,111,1.0,7.0,59,0.00,,CLR,0.00,VWS V14.01,2013-02-25 11:35:00,
2013-02-25 05:40:00,42.0,28.7,29.90,North,360,2.0,6.0,59,0.00,,CLR,0.00,VWS V14.01,2013-02-25 11:40:00,
2013-02-25 05:45:00,41.9,28.6,29.90,ENE,57,0.0,7.0,59,0.00,,CLR,0.00,VWS V14.01,2013-02-25 11:45:00,
2013-02-25 05:50:00,41.9,28.6,29.90,ESE,108,0.0,5.0,59,0.00,,CLR,0.00,VWS V14.01,2013-02-25 11:50:00,
2013-02-25 05:55:00,41.9,28.6,29.90,ESE,117,1.0,7.0,59,0.00,,CLR,0.00,VWS V14.01,2013-02-25 11:55:00,
2013-02-25 06:00:00,41.8,28.5,29.88,SE,130,3.0,6.0,59,0.00,,CLR,0.00,VWS V14.01,2013-02-25 12:00:00,
2013-02-25 06:05:00,41.7,28.4,29.88,East,97,0.0,7.0,59,0.00,,CLR,0.00,VWS V14.01,2013-02-25 12:05:00,
2013-02-25 06:10:00,41.6,28.8,29.88,North,10,2.0,5.0,60,0.00,,CLR,0.00,VWS V14.01,2013-02-25 12:10:00,
2013-02-25 06:15:00,41.6,28.4,29.88,ENE,62,0.0,9.0,59,0.00,,CLR,0.00,VWS V14.01,2013-02-25 12:15:00,
2013-02-25 06:20:00,41.7,28.4,29.88,NE,35,1.0,8.0,59,0.00,,CLR,0.00,VWS V14.01,2013-02-25 12:20:00,
2013-02-25 06:25:00,41.8,28.5,29.88,ESE,122,3.0,8.0,59,0.00,,CLR,0.00,VWS V14.01,2013-02-25 12:25:00,
2013-02-25 06:30:00,41.9,28.6,29.89,ESE,117,5.0,11.0,59,0.00,,CLR,0.00,VWS V14.01,2013-02-25 12:30:00,
2013-02-25 06:35:00,41.9,28.6,29.89,ESE,106,3.0,8.0,59,0.00,,CLR,0.00,VWS V14.01,2013-02-25 12:35:00,
2013-02-25 06:40:00,41.8,28.5,29.89,East,90,2.0,7.0,59,0.00,,CLR,0.00,VWS V14.01,2013-02-25 12:40:00,
2013-02-25 06:45:00,41.7,28.9,29.89,ESE,117,2.0,9.0,60,0.00,,CLR,0.00,VWS V14.01,2013-02-25 12:45:00,
2013-02-25 06:51:00,41.6,28.8,29.89,NNW,338,4.0,4.0,60,0.00,,CLR,0.00,VWS V14.01,2013-02-25 12:51:00,
2013-02-25 06:56:00,41.6,28.8,29.88,ENE,70,1.0,4.0,60,0.00,,CLR,0.00,VWS V14.01,2013-02-25 12:56:00,
2013-02-25 07:01:00,41.5,28.7,29.87,East,101,5.0,7.0,60,0.00,,CLR,0.00,VWS V14.01,2013-02-25 13:01:00,
2013-02-25 07:06:00,41.4,28.6,29.87,East,96,7.0,7.0,60,0.00,,CLR,0.00,VWS V14.01,2013-02-25 13:06:00,
2013-02-25 07:11:00,41.4,29.0,29.87,East,96,2.0,7.0,61,0.00,,CLR,0.00,VWS V14.01,2013-02-25 13:11:00,
2013-02-25 07:16:00,41.5,29.1,29.87,ESE,115,7.0,7.0,61,0.00,,CLR,0.00,VWS V14.01,2013-02-25 13:16:00,
2013-02-25 07:21:00,42.0,29.5,29.87,ENE,71,1.0,5.0,61,0.00,,CLR,0.00,VWS V14.01,2013-02-25 13:21:00,
2013-02-25 07:26:00,42.7,29.8,29.87,East,100,5.0,7.0,60,0.00,,CLR,0.00,VWS V14.01,2013-02-25 13:26:00,
2013-02-25 07:31:00,43.3,30.0,29.87,ESE,123,2.0,3.0,59,0.00,,CLR,0.00,VWS V14.01,2013-02-25 13:31:00,
2013-02-25 07:36:00,43.8,30.0,29.86,SSE,149,2.0,7.0,58,0.00,,CLR,0.00,VWS V14.01,2013-02-25 13:36:00,
2013-02-25 07:41:00,44.0,29.8,29.86,ESE,117,11.0,11.0,57,0.00,,CLR,0.00,VWS V14.01,2013-02-25 13:41:00,
2013-02-25 07:46:00,44.4,30.1,29.87,NNE,20,0.0,2.0,57,0.00,,CLR,0.00,VWS V14.01,2013-02-25 13:46:00,
2013-02-25 07:51:00,45.0,30.3,29.88,East,93,6.0,6.0,56,0.00,,CLR,0.00,VWS V14.01,2013-02-25 13:51:00,
2013-02-25 07:56:00,45.4,30.2,29.87,East,84,3.0,3.0,55,0.00,,CLR,0.00,VWS V14.01,2013-02-25 13:56:00,
2013-02-25 08:01:00,45.2,30.0,29.87,ESE,112,5.0,7.0,55,0.00,,CLR,0.00,VWS V14.01,2013-02-25 14:01:00,
2013-02-25 08:07:00,45.1,29.9,29.87,SE,129,3.0,9.0,55,0.00,,CLR,0.00,VWS V14.01,2013-02-25 14:07:00,
2013-02-25 08:12:00,45.6,30.4,29.87,ESE,110,4.0,7.0,55,0.00,,CLR,0.00,VWS V14.01,2013-02-25 14:12:00,
2013-02-25 08:17:00,45.9,30.7,29.88,SE,129,3.0,4.0,55,0.00,,CLR,0.00,VWS V14.01,2013-02-25 14:17:00,
2013-02-25 08:22:00,46.5,30.8,29.88,ESE,106,3.0,4.0,54,0.00,,CLR,0.00,VWS V14.01,2013-02-25 14:22:00,
2013-02-25 08:27:00,46.7,30.5,29.89,NE,40,1.0,3.0,53,0.00,,CLR,0.00,VWS V14.01,2013-02-25 14:27:00,
2013-02-25 08:32:00,46.9,30.7,29.88,ESE,118,3.0,3.0,53,0.00,,CLR,0.00,VWS V14.01,2013-02-25 14:32:00,
2013-02-25 08:37:00,46.9,30.7,29.88,ESE,117,3.0,7.0,53,0.00,,CLR,0.00,VWS V14.01,2013-02-25 14:37:00,
2013-02-25 08:42:00,47.0,30.8,29.87,NNE,15,1.0,7.0,53,0.00,,CLR,0.00,VWS V14.01,2013-02-25 14:42:00,
2013-02-25 08:47:00,47.1,30.9,29.88,SE,141,5.0,7.0,53,0.00,,CLR,0.00,VWS V14.01,2013-02-25 14:47:00,
2013-02-25 08:52:00,47.8,31.5,29.88,ESE,112,2.0,5.0,53,0.00,,CLR,0.00,VWS V14.01,2013-02-25 14:52:00,
2013-02-25 08:57:00,48.1,31.3,29.87,ENE,72,9.0,10.0,52,0.00,,CLR,0.00,VWS V14.01,2013-02-25 14:57:00,
2013-02-25 09:02:00,48.1,31.3,29.87,East,101,3.0,10.0,52,0.00,,CLR,0.00,VWS V14.01,2013-02-25 15:02:00,
2013-02-25 09:07:00,48.1,31.3,29.88,ESE,115,3.0,8.0,52,0.00,,CLR,0.00,VWS V14.01,2013-02-25 15:07:00,
2013-02-25 09:12:00,49.0,32.2,29.89,East,83,1.0,5.0,52,0.00,,CLR,0.00,VWS V14.01,2013-02-25 15:12:00,
2013-02-25 09:17:00,49.7,32.3,29.88,East,83,1.0,6.0,51,0.00,,CLR,0.00,VWS V14.01,2013-02-25 15:17:00,
2013-02-25 09:22:00,51.3,32.8,29.87,ESE,115,7.0,7.0,49,0.00,,CLR,0.00,VWS V14.01,2013-02-25 15:22:00,
2013-02-25 09:27:00,52.0,32.4,29.87,SE,129,4.0,5.0,47,0.00,,CLR,0.00,VWS V14.01,2013-02-25 15:27:00,
2013-02-25 09:32:00,52.7,32.5,29.86,NNE,24,3.0,5.0,46,0.00,,CLR,0.00,VWS V14.01,2013-02-25 15:32:00,
2013-02-25 09:37:00,53.8,33.5,29.86,East,101,6.0,6.0,46,0.00,,CLR,0.00,VWS V14.01,2013-02-25 15:37:00,
2013-02-25 09:42:00,54.0,33.2,29.86,SE,143,6.0,6.0,45,0.00,,CLR,0.00,VWS V14.01,2013-02-25 15:42:00,
2013-02-25 09:47:00,54.1,32.7,29.85,ESE,103,8.0,10.0,44,0.00,,CLR,0.00,VWS V14.01,2013-02-25 15:47:00,
2013-02-25 09:52:00,54.5,33.0,29.85,NNE,24,4.0,7.0,44,0.00,,CLR,0.00,VWS V14.01,2013-02-25 15:52:00,
2013-02-25 09:57:00,54.8,33.3,29.85,SE,127,4.0,8.0,44,0.00,,CLR,0.00,VWS V14.01,2013-02-25 15:57:00,
2013-02-25 10:02:00,55.0,32.9,29.85,East,93,5.0,9.0,43,0.00,,CLR,0.00,VWS V14.01,2013-02-25 16:02:00,
2013-02-25 10:07:00,55.4,33.3,29.85,NNE,26,0.0,4.0,43,0.00,,BKN250,0.00,VWS V14.01,2013-02-25 16:07:00,
2013-02-25 10:12:00,55.3,33.2,29.84,NE,40,4.0,10.0,43,0.00,,BKN250,0.00,VWS V14.01,2013-02-25 16:12:00,
2013-02-25 10:17:00,55.8,33.1,29.84,WNW,288,3.0,5.0,42,0.00,,BKN250,0.00,VWS V14.01,2013-02-25 16:17:00,
2013-02-25 10:22:00,55.2,33.1,29.85,NE,47,0.0,11.0,43,0.00,,BKN250,0.00,VWS V14.01,2013-02-25 16:22:00,
2013-02-25 10:27:00,55.4,33.9,29.84,ENE,78,1.0,5.0,44,0.00,,BKN250,0.00,VWS V14.01,2013-02-25 16:27:00,
2013-02-25 10:32:00,55.4,33.3,29.85,North,5,1.0,9.0,43,0.00,,BKN250,0.00,VWS V14.01,2013-02-25 16:32:00,
2013-02-25 10:37:00,55.1,33.6,29.84,North,360,0.0,8.0,44,0.00,,BKN250,0.00,VWS V14.01,2013-02-25 16:37:00,
2013-02-25 10:42:00,55.5,34.5,29.84,ESE,107,4.0,8.0,45,0.00,,BKN250,0.00,VWS V14.01,2013-02-25 16:42:00,
2013-02-25 10:47:00,55.7,33.6,29.84,East,82,3.0,8.0,43,0.00,,BKN250,0.00,VWS V14.01,2013-02-25 16:47:00,
2013-02-25 10:52:00,56.1,33.9,29.83,WSW,255,2.0,3.0,43,0.00,,BKN250,0.00,VWS V14.01,2013-02-25 16:52:00,
2013-02-25 10:57:00,56.5,34.9,29.83,East,85,3.0,3.0,44,0.00,,BKN250,0.00,VWS V14.01,2013-02-25 16:57:00,
2013-02-25 11:02:00,57.1,34.8,29.82,SE,146,3.0,5.0,43,0.00,,BKN250,0.00,VWS V14.01,2013-02-25 17:02:00,
2013-02-25 11:07:00,58.2,34.6,29.82,North,5,3.0,8.0,41,0.00,,BKN250,0.00,VWS V14.01,2013-02-25 17:07:00,
2013-02-25 11:12:00,60.0,35.6,29.81,East,85,11.0,11.0,40,0.00,,BKN250,0.00,VWS V14.01,2013-02-25 17:12:00,
2013-02-25 11:17:00,60.9,35.8,29.80,ESE,113,2.0,6.0,39,0.00,,BKN250,0.00,VWS V14.01,2013-02-25 17:17:00,
2013-02-25 11:22:00,60.9,35.1,29.80,ENE,57,5.0,8.0,38,0.00,,BKN250,0.00,VWS V14.01,2013-02-25 17:22:00,
2013-02-25 11:27:00,60.8,34.4,29.80,ESE,108,1.0,6.0,37,0.00,,BKN250,0.00,VWS V14.01,2013-02-25 17:27:00,
2013-02-25 11:32:00,60.2,35.2,29.80,ENE,71,5.0,7.0,39,0.00,,BKN250,0.00,VWS V14.01,2013-02-25 17:32:00,
2013-02-25 11:37:00,60.7,35.0,29.80,ESE,111,7.0,8.0,38,0.00,,BKN250,0.00,VWS V14.01,2013-02-25 17:37:00,
2013-02-25 11:42:00,60.3,34.6,29.80,East,87,7.0,15.0,38,0.00,,BKN250,0.00,VWS V14.01,2013-02-25 17:42:00,
2013-02-25 11:47:00,60.1,35.7,29.79,ESE,122,9.0,9.0,40,0.00,,BKN250,0.00,VWS V14.01,2013-02-25 17:47:00,
2013-02-25 11:52:00,60.2,35.8,29.79,ESE,114,8.0,12.0,40,0.00,,BKN250,0.00,VWS V14.01,2013-02-25 17:52:00,
2013-02-25 11:57:00,60.4,36.0,29.78,SE,131,12.0,14.0,40,0.00,,BKN250,0.00,VWS V14.01,2013-02-25 17:57:00,
2013-02-25 12:02:00,60.6,36.2,29.77,East,101,3.0,10.0,40,0.00,,BKN250,0.00,VWS V14.01,2013-02-25 18:02:00,
2013-02-25 12:07:00,60.5,36.1,29.78,East,101,6.0,10.0,40,0.00,,BKN250,0.00,VWS V14.01,2013-02-25 18:07:00,
2013-02-25 12:12:00,60.3,35.9,29.77,ESE,120,5.0,11.0,40,0.00,,BKN250,0.00,VWS V14.01,2013-02-25 18:12:00,
2013-02-25 12:17:00,60.2,36.4,29.77,East,81,3.0,5.0,41,0.00,,BKN250,0.00,VWS V14.01,2013-02-25 18:17:00,
2013-02-25 12:22:00,60.3,37.1,29.76,ESE,118,4.0,6.0,42,0.00,,BKN250,0.00,VWS V14.01,2013-02-25 18:22:00,
2013-02-25 12:27:00,60.0,38.0,29.75,ENE,76,4.0,17.0,44,0.00,,BKN250,0.00,VWS V14.01,2013-02-25 18:27:00,
2013-02-25 12:32:00,60.1,38.1,29.75,SE,138,11.0,11.0,44,0.00,,BKN250,0.00,VWS V14.01,2013-02-25 18:32:00,
2013-02-25 12:37:00,59.8,37.9,29.74,ESE,109,2.0,8.0,44,0.00,,BKN250,0.00,VWS V14.01,2013-02-25 18:37:00,
2013-02-25 12:42:00,60.1,37.5,29.74,SSE,148,2.0,13.0,43,0.00,,BKN250,0.00,VWS V14.01,2013-02-25 18:42:00,
2013-02-25 12:47:00,60.0,38.0,29.74,East,92,8.0,9.0,44,0.00,,BKN250,0.00,VWS V14.01,2013-02-25 18:47:00,
2013-02-25 12:52:00,59.7,38.3,29.73,ESE,113,11.0,17.0,45,0.00,,BKN250,0.00,VWS V14.01,2013-02-25 18:52:00,
2013-02-25 12:57:00,59.5,38.7,29.72,SE,142,10.0,15.0,46,0.00,,BKN250,0.00,VWS V14.01,2013-02-25 18:57:00,
2013-02-25 13:02:00,59.7,38.9,29.72,ESE,107,10.0,12.0,46,0.00,,BKN250,0.00,VWS V14.01,2013-02-25 19:02:00,
2013-02-25 13:07:00,59.9,39.1,29.72,ESE,105,5.0,10.0,46,0.00,,OVC055,0.00,VWS V14.01,2013-02-25 19:07:00,
2013-02-25 13:12:00,60.1,39.3,29.72,SSE,163,10.0,12.0,46,0.00,,OVC055,0.00,VWS V14.01,2013-02-25 19:12:00,
2013-02-25 13:17:00,60.0,39.7,29.71,ESE,103,8.0,14.0,47,0.00,,OVC055,0.00,VWS V14.01,2013-02-25 19:17:00,
2013-02-25 13:22:00,60.1,40.4,29.71,SE,143,4.0,6.0,48,0.00,,OVC055,0.00,VWS V14.01,2013-02-25 19:22:00,
2013-02-25 13:27:00,60.1,39.3,29.71,SW,219,6.0,9.0,46,0.00,,OVC055,0.00,VWS V14.01,2013-02-25 19:27:00,
2013-02-25 13:32:00,60.0,39.7,29.70,ESE,113,4.0,11.0,47,0.00,,OVC055,0.00,VWS V14.01,2013-02-25 19:32:00,
2013-02-25 13:37:00,59.8,40.1,29.70,ESE,119,1.0,9.0,48,0.00,,OVC055,0.00,VWS V14.01,2013-02-25 19:37:00,
2013-02-25 13:42:00,59.9,40.2,29.70,NW,306,2.0,10.0,48,0.00,,OVC055,0.00,VWS V14.01,2013-02-25 19:42:00,
2013-02-25 13:47:00,59.8,40.6,29.69,East,88,3.0,11.0,49,0.00,,OVC055,0.00,VWS V14.01,2013-02-25 19:47:00,
2013-02-25 13:52:00,59.7,40.5,29.69,ESE,106,4.0,12.0,49,0.00,,OVC055,0.00,VWS V14.01,2013-02-25 19:52:00,
2013-02-25 13:57:00,59.9,41.2,29.68,NE,38,2.0,9.0,50,0.00,,OVC055,0.00,VWS V14.01,2013-02-25 19:57:00,
2013-02-25 14:02:00,59.7,42.6,29.69,SE,128,9.0,16.0,53,0.00,,OVC055,0.00,VWS V14.01,2013-02-25 20:02:00,
2013-02-25 14:07:00,59.4,42.8,29.68,ESE,117,15.0,15.0,54,0.00,,OVC055,0.00,VWS V14.01,2013-02-25 20:07:00,
2013-02-25 14:12:00,59.2,43.1,29.68,ESE,116,4.0,9.0,55,0.00,,OVC055,0.00,VWS V14.01,2013-02-25 20:12:00,
2013-02-25 14:17:00,59.2,43.5,29.67,ESE,123,8.0,9.0,56,0.00,,OVC055,0.00,VWS V14.01,2013-02-25 20:17:00,
2013-02-25 14:22:00,59.1,43.9,29.67,ESE,113,7.0,12.0,57,0.00,,OVC055,0.00,VWS V14.01,2013-02-25 20:22:00,
2013-02-25 14:27:00,59.0,44.3,29.66,ENE,74,4.0,12.0,58,0.00,,OVC055,0.00,VWS V14.01,2013-02-25 20:27:00,
2013-02-25 14:32:00,59.3,44.5,29.65,North,355,1.0,3.0,58,0.00,,OVC055,0.00,VWS V14.01,2013-02-25 20:32:00,
2013-02-25 14:37:00,59.4,43.7,29.65,NE,46,3.0,11.0,56,0.00,,OVC055,0.00,VWS V14.01,2013-02-25 20:37:00,
2013-02-25 14:42:00,59.1,44.3,29.64,East,98,7.0,9.0,58,0.00,,OVC055,0.00,VWS V14.01,2013-02-25 20:42:00,
2013-02-25 14:47:00,58.9,45.9,29.64,SE,137,5.0,14.0,62,0.00,,OVC055,0.00,VWS V14.01,2013-02-25 20:47:00,
2013-02-25 14:52:00,58.4,47.1,29.64,ESE,115,8.0,9.0,66,0.00,,OVC055,0.00,VWS V14.01,2013-02-25 20:52:00,
2013-02-25 14:57:00,58.2,46.5,29.63,ESE,112,12.0,14.0,65,0.00,,OVC055,0.00,VWS V14.01,2013-02-25 20:57:00,
2013-02-25 15:02:00,58.2,46.5,29.62,ENE,72,4.0,15.0,65,0.00,,OVC055,0.00,VWS V14.01,2013-02-25 21:02:00,
2013-02-25 15:07:00,58.2,46.5,29.61,ESE,105,11.0,14.0,65,0.00,,OVC025,0.00,VWS V14.01,2013-02-25 21:07:00,
2013-02-25 15:12:00,58.4,46.7,29.61,ESE,109,7.0,9.0,65,0.00,,OVC025,0.00,VWS V14.01,2013-02-25 21:12:00,
2013-02-25 15:17:00,58.7,46.6,29.60,SE,133,8.0,14.0,64,0.00,,OVC025,0.00,VWS V14.01,2013-02-25 21:17:00,
2013-02-25 15:22:00,58.7,46.6,29.59,ESE,107,10.0,19.0,64,0.00,,OVC025,0.00,VWS V14.01,2013-02-25 21:22:00,
2013-02-25 15:27:00,58.7,46.6,29.59,SSE,147,7.0,12.0,64,0.00,,OVC025,0.00,VWS V14.01,2013-02-25 21:27:00,
2013-02-25 15:32:00,58.8,46.7,29.58,ESE,113,9.0,13.0,64,0.00,,OVC025,0.00,VWS V14.01,2013-02-25 21:32:00,
2013-02-25 15:37:00,59.0,46.4,29.59,ESE,123,4.0,14.0,63,0.00,,OVC025,0.00,VWS V14.01,2013-02-25 21:37:00,
2013-02-25 15:42:00,58.6,45.6,29.59,ENE,74,8.0,15.0,62,0.00,,OVC025,0.00,VWS V14.01,2013-02-25 21:42:00,
2013-02-25 15:47:00,58.1,45.6,29.59,SE,136,6.0,11.0,63,0.00,,OVC025,0.00,VWS V14.01,2013-02-25 21:47:00,
2013-02-25 15:52:00,57.9,45.4,29.59,ESE,103,13.0,15.0,63,0.00,,OVC025,0.00,VWS V14.01,2013-02-25 21:52:00,
2013-02-25 15:57:00,57.8,45.7,29.59,SE,144,7.0,13.0,64,0.00,,OVC025,0.00,VWS V14.01,2013-02-25 21:57:00,
2013-02-25 16:02:00,57.7,45.2,29.60,SE,130,16.0,16.0,63,0.00,,OVC025,0.00,VWS V14.01,2013-02-25 22:02:00,
2013-02-25 16:07:00,57.6,45.1,29.59,ESE,107,5.0,16.0,63,0.00,,OVC036,0.00,VWS V14.01,2013-02-25 22:07:00,
2013-02-25 16:12:00,57.5,45.0,29.59,ESE,123,0.0,11.0,63,0.00,,OVC036,0.00,VWS V14.01,2013-02-25 22:12:00,
2013-02-25 16:17:00,57.5,45.0,29.59,ESE,112,10.0,13.0,63,0.00,,OVC036,0.00,VWS V14.01,2013-02-25 22:17:00,
2013-02-25 16:22:00,57.5,44.6,29.60,ESE,120,2.0,12.0,62,0.00,,OVC036,0.00,VWS V14.01,2013-02-25 22:22:00,
2013-02-25 16:27:00,57.4,44.9,29.60,ESE,103,8.0,8.0,63,0.00,,OVC036,0.00,VWS V14.01,2013-02-25 22:27:00,
2013-02-25 16:32:00,57.3,44.4,29.59,SSE,157,0.0,11.0,62,0.00,,OVC036,0.00,VWS V14.01,2013-02-25 22:32:00,
2013-02-25 16:37:00,57.2,44.7,29.59,ESE,117,9.0,9.0,63,0.00,,OVC036,0.00,VWS V14.01,2013-02-25 22:37:00,
2013-02-25 16:42:00,57.2,44.3,29.59,ESE,119,4.0,11.0,62,0.00,,OVC036,0.00,VWS V14.01,2013-02-25 22:42:00,
2013-02-25 16:47:00,57.1,44.2,29.57,ESE,108,5.0,10.0,62,0.00,,OVC036,0.00,VWS V14.01,2013-02-25 22:47:00,
2013-02-25 16:52:00,57.1,44.2,29.55,East,93,7.0,11.0,62,0.00,,OVC036,0.00,VWS V14.01,2013-02-25 22:52:00,
2013-02-25 16:57:00,57.0,44.1,29.54,SE,126,8.0,9.0,62,0.00,,OVC036,0.00,VWS V14.01,2013-02-25 22:57:00,
2013-02-25 17:02:00,56.9,44.0,29.55,ESE,105,7.0,7.0,62,0.00,,OVC036,0.00,VWS V14.01,2013-02-25 23:02:00,
2013-02-25 17:07:00,56.9,44.0,29.55,SE,144,4.0,8.0,62,0.00,,OVC038,0.00,VWS V14.01,2013-02-25 23:07:00,
2013-02-25 17:12:00,56.9,44.0,29.55,ESE,113,10.0,10.0,62,0.00,,OVC038,0.00,VWS V14.01,2013-02-25 23:12:00,
2013-02-25 17:17:00,56.9,44.0,29.56,SE,145,10.0,10.0,62,0.00,,OVC038,0.00,VWS V14.01,2013-02-25 23:17:00,
2013-02-25 17:22:00,57.0,44.1,29.56,ESE,123,4.0,10.0,62,0.00,,OVC038,0.00,VWS V14.01,2013-02-25 23:22:00,
2013-02-25 17:27:00,57.1,44.2,29.55,ESE,117,4.0,10.0,62,0.00,,OVC038,0.00,VWS V14.01,2013-02-25 23:27:00,
2013-02-25 17:32:00,57.1,44.2,29.55,WSW,255,2.0,13.0,62,0.00,,OVC038,0.00,VWS V14.01,2013-02-25 23:32:00,
2013-02-25 17:37:00,57.1,44.2,29.55,South,182,0.0,8.0,62,0.00,,OVC038,0.00,VWS V14.01,2013-02-25 23:37:00,
2013-02-25 17:42:00,57.1,44.2,29.54,ESE,119,4.0,12.0,62,0.00,,OVC038,0.00,VWS V14.01,2013-02-25 23:42:00,
2013-02-25 17:47:00,57.2,44.3,29.54,SSE,158,0.0,5.0,62,0.00,,OVC038,0.00,VWS V14.01,2013-02-25 23:47:00,
2013-02-25 17:52:00,57.2,44.7,29.54,ESE,117,2.0,7.0,63,0.00,,OVC038,0.00,VWS V14.01,2013-02-25 23:52:00,
2013-02-25 17:57:00,57.3,45.2,29.54,ESE,112,2.0,7.0,64,0.00,,OVC038,0.00,VWS V14.01,2013-02-25 23:57:00,
2013-02-25 18:02:00,57.3,46.0,29.54,ESE,121,2.0,9.0,66,0.00,,OVC038,0.00,VWS V14.01,2013-02-26 00:02:00,
2013-02-25 18:07:00,57.2,46.8,29.54,ESE,102,8.0,8.0,68,0.00,,OVC028,0.00,VWS V14.01,2013-02-26 00:07:00,
2013-02-25 18:12:00,57.0,47.3,29.53,ESE,109,5.0,7.0,70,0.01,,OVC028,0.01,VWS V14.01,2013-02-26 00:12:00,
2013-02-25 18:17:00,56.8,48.2,29.53,ESE,121,11.0,11.0,73,0.01,,OVC028,0.01,VWS V14.01,2013-02-26 00:17:00,
2013-02-25 18:22:00,56.9,49.1,29.53,SW,215,4.0,13.0,75,0.01,,OVC028,0.01,VWS V14.01,2013-02-26 00:22:00,
2013-02-25 18:27:00,57.1,49.6,29.52,ESE,121,4.0,13.0,76,0.01,,OVC028,0.01,VWS V14.01,2013-02-26 00:27:00,
2013-02-25 18:32:00,57.3,50.2,29.52,ESE,123,3.0,7.0,77,0.01,,OVC028,0.01,VWS V14.01,2013-02-26 00:32:00,
2013-02-25 18:37:00,57.3,50.5,29.50,East,88,8.0,10.0,78,0.01,,OVC028,0.01,VWS V14.01,2013-02-26 00:37:00,
2013-02-25 18:42:00,57.5,50.7,29.50,South,169,9.0,9.0,78,0.01,,OVC028,0.01,VWS V14.01,2013-02-26 00:42:00,
2013-02-25 18:47:00,57.7,50.9,29.51,SE,133,3.0,13.0,78,0.01,,OVC028,0.01,VWS V14.01,2013-02-26 00:47:00,
2013-02-25 18:52:00,57.8,51.0,29.50,South,173,7.0,11.0,78,0.01,,OVC028,0.01,VWS V14.01,2013-02-26 00:52:00,
2013-02-25 18:57:00,57.9,51.1,29.51,SE,128,10.0,10.0,78,0.01,,OVC028,0.01,VWS V14.01,2013-02-26 00:57:00,
2013-02-25 19:02:00,58.1,51.3,29.51,South,191,2.0,14.0,78,0.01,,OVC028,0.01,VWS V14.01,2013-02-26 01:02:00,
2013-02-25 19:07:00,58.2,51.4,29.50,SSE,157,3.0,10.0,78,0.01,,OVC025,0.01,VWS V14.01,2013-02-26 01:07:00,
2013-02-25 19:12:00,58.2,51.4,29.50,East,99,5.0,10.0,78,0.01,,OVC025,0.01,VWS V14.01,2013-02-26 01:12:00,
2013-02-25 19:17:00,58.0,51.5,29.50,SE,127,7.0,9.0,79,0.00,,OVC025,0.01,VWS V14.01,2013-02-26 01:17:00,
2013-02-25 19:22:00,57.8,51.7,29.50,SE,138,3.0,12.0,80,0.02,,OVC025,0.03,VWS V14.01,2013-02-26 01:22:00,
2013-02-25 19:27:00,57.3,51.9,29.50,SE,133,8.0,13.0,82,0.05,,OVC025,0.06,VWS V14.01,2013-02-26 01:27:00,
2013-02-25 19:32:00,56.8,52.0,29.49,SE,144,3.0,7.0,84,0.08,,OVC025,0.09,VWS V14.01,2013-02-26 01:32:00,
2013-02-25 19:37:00,56.6,52.2,29.48,SE,127,4.0,8.0,85,0.08,,OVC025,0.09,VWS V14.01,2013-02-26 01:37:00,
2013-02-25 19:42:00,56.5,52.4,29.47,East,82,2.0,10.0,86,0.09,,OVC025,0.10,VWS V14.01,2013-02-26 01:42:00,
2013-02-25 19:47:00,56.4,52.3,29.48,SSW,194,2.0,5.0,86,0.11,,OVC025,0.12,VWS V14.01,2013-02-26 01:47:00,
2013-02-25 19:52:00,56.3,52.5,29.47,ESE,119,4.0,6.0,87,0.11,,OVC025,0.12,VWS V14.01,2013-02-26 01:52:00,
2013-02-25 19:57:00,56.4,52.3,29.45,ESE,117,4.0,7.0,86,0.11,,OVC025,0.12,VWS V14.01,2013-02-26 01:57:00,
2013-02-25 20:02:00,56.4,52.6,29.45,SSE,147,1.0,4.0,87,0.11,,OVC025,0.12,VWS V14.01,2013-02-26 02:02:00,
2013-02-25 20:07:00,56.4,52.6,29.45,East,94,2.0,5.0,87,0.12,,-RA,0.13,VWS V14.01,2013-02-26 02:07:00,
2013-02-25 20:12:00,56.5,52.4,29.46,SSE,147,3.0,4.0,86,0.12,,-RA,0.13,VWS V14.01,2013-02-26 02:12:00,
2013-02-25 20:17:00,56.6,52.5,29.45,ENE,61,0.0,5.0,86,0.12,,-RA,0.13,VWS V14.01,2013-02-26 02:17:00,
2013-02-25 20:22:00,56.5,52.7,29.46,East,83,0.0,1.0,87,0.11,,-RA,0.13,VWS V14.01,2013-02-26 02:22:00,
2013-02-25 20:27:00,56.6,52.8,29.46,ESE,107,1.0,5.0,87,0.08,,-RA,0.13,VWS V14.01,2013-02-26 02:27:00,
2013-02-25 20:32:00,56.6,52.8,29.45,SE,131,7.0,7.0,87,0.07,,-RA,0.15,VWS V14.01,2013-02-26 02:32:00,
2013-02-25 20:38:00,56.8,52.7,29.44,SSW,196,3.0,8.0,86,0.08,,-RA,0.17,VWS V14.01,2013-02-26 02:38:00,
2013-02-25 20:43:00,56.8,53.0,29.44,SE,129,1.0,4.0,87,0.08,,-RA,0.18,VWS V14.01,2013-02-26 02:43:00,
2013-02-25 20:48:00,56.8,53.0,29.44,ESE,119,7.0,8.0,87,0.09,,-RA,0.20,VWS V14.01,2013-02-26 02:48:00,
2013-02-25 20:52:00,56.7,52.9,29.43,ESE,123,3.0,10.0,87,0.10,,-RA,0.22,VWS V14.01,2013-02-26 02:52:00,
2013-02-25 20:57:00,56.6,53.1,29.42,ESE,110,4.0,8.0,88,0.12,,-RA,0.24,VWS V14.01,2013-02-26 02:57:00,
2013-02-25 21:02:00,56.5,53.0,29.42,South,185,3.0,8.0,88,0.14,,-RA,0.26,VWS V14.01,2013-02-26 03:02:00,
2013-02-25 21:07:00,56.4,52.9,29.42,ESE,111,5.0,11.0,88,0.14,,-RA,0.27,VWS V14.01,2013-02-26 03:07:00,
2013-02-25 21:12:00,56.3,53.1,29.42,SE,146,4.0,8.0,89,0.16,,-RA,0.29,VWS V14.01,2013-02-26 03:12:00,
2013-02-25 21:17:00,56.3,53.1,29.41,SE,144,3.0,7.0,89,0.17,,-RA,0.30,VWS V14.01,2013-02-26 03:17:00,
2013-02-25 21:22:00,56.1,52.9,29.41,ESE,117,3.0,8.0,89,0.20,,-RA,0.33,VWS V14.01,2013-02-26 03:22:00,
2013-02-25 21:27:00,56.0,53.1,29.40,ESE,109,2.0,8.0,90,0.21,,-RA,0.34,VWS V14.01,2013-02-26 03:27:00,
2013-02-25 21:32:00,55.9,53.0,29.39,ESE,113,8.0,8.0,90,0.22,,-RA,0.36,VWS V14.01,2013-02-26 03:32:00,
2013-02-25 21:37:00,55.7,52.8,29.39,ESE,107,8.0,10.0,90,0.21,,-RA,0.37,VWS V14.01,2013-02-26 03:37:00,
2013-02-25 21:42:00,55.7,52.8,29.39,South,185,6.0,13.0,90,0.20,,-RA,0.38,VWS V14.01,2013-02-26 03:42:00,
2013-02-25 21:47:00,55.5,52.6,29.39,SSE,160,5.0,13.0,90,0.20,,-RA,0.39,VWS V14.01,2013-02-26 03:47:00,
2013-02-25 21:52:00,55.5,52.6,29.37,ESE,105,5.0,14.0,90,0.22,,-RA,0.43,VWS V14.01,2013-02-26 03:52:00,
2013-02-25 21:57:00,55.3,52.7,29.36,South,170,8.0,15.0,91,0.24,,-RA,0.47,VWS V14.01,2013-02-26 03:57:00,
2013-02-25 22:02:00,55.2,52.6,29.35,South,181,7.0,12.0,91,0.23,,-RA,0.48,VWS V14.01,2013-02-26 04:02:00,
2013-02-25 22:07:00,55.1,52.5,29.35,SSE,156,8.0,10.0,91,0.21,,-RA,0.48,VWS V14.01,2013-02-26 04:07:00,
2013-02-25 22:12:00,55.1,52.5,29.34,SE,146,6.0,10.0,91,0.21,,-RA,0.49,VWS V14.01,2013-02-26 04:12:00,
2013-02-25 22:17:00,55.1,52.5,29.34,ESE,102,8.0,15.0,91,0.19,,-RA,0.49,VWS V14.01,2013-02-26 04:17:00,
2013-02-25 22:22:00,55.1,52.5,29.34,SSE,161,9.0,12.0,91,0.18,,-RA,0.50,VWS V14.01,2013-02-26 04:22:00,
2013-02-25 22:28:00,55.0,52.4,29.38,South,187,8.0,8.0,91,0.17,,-RA,0.50,VWS V14.01,2013-02-26 04:28:00,
2013-02-25 22:33:00,55.1,52.5,29.40,South,182,1.0,6.0,91,0.20,,-RA,0.55,VWS V14.01,2013-02-26 04:33:00,
2013-02-25 22:37:00,55.1,52.5,29.40,SW,230,2.0,5.0,91,0.18,,-RA,0.55,VWS V14.01,2013-02-26 04:37:00,
2013-02-25 22:43:00,55.0,52.4,29.40,SSW,204,3.0,5.0,91,0.17,,-RA,0.55,VWS V14.01,2013-02-26 04:43:00,
2013-02-25 22:48:00,55.0,52.7,29.40,SW,228,0.0,6.0,92,0.16,,-RA,0.55,VWS V14.01,2013-02-26 04:48:00,
2013-02-25 22:53:00,55.0,52.7,29.40,South,184,5.0,7.0,92,0.16,,-RA,0.57,VWS V14.01,2013-02-26 04:53:00,
2013-02-25 22:58:00,54.9,52.6,29.39,South,179,1.0,4.0,92,0.12,,-RA,0.58,VWS V14.01,2013-02-26 04:58:00,
2013-02-25 23:00:00,54.9,52.6,29.39,SSE,155,3.0,4.0,92,0.13,,-RA,0.59,VWS V14.01,2013-02-26 05:00:00,
2013-02-25 23:05:00,54.8,52.5,29.38,ESE,117,7.0,7.0,92,0.12,,-RA,0.59,VWS V14.01,2013-02-26 05:05:00,
2013-02-25 23:10:00,54.8,52.8,29.38,SSE,152,6.0,10.0,93,0.12,,-RA,0.60,VWS V14.01,2013-02-26 05:10:00,
2013-02-25 23:15:00,54.8,52.8,29.39,SSE,151,4.0,11.0,93,0.13,,-RA,0.61,VWS V14.01,2013-02-26 05:15:00,
2013-02-25 23:20:00,54.9,52.9,29.38,SE,129,5.0,11.0,93,0.14,,-RA,0.63,VWS V14.01,2013-02-26 05:20:00,
2013-02-25 23:25:00,54.9,52.9,29.37,SE,144,5.0,11.0,93,0.14,,-RA,0.64,VWS V14.01,2013-02-26 05:25:00,
2013-02-25 23:30:00,54.9,52.9,29.37,ESE,113,9.0,13.0,93,0.15,,-RA,0.65,VWS V14.01,2013-02-26 05:30:00,
2013-02-25 23:35:00,55.0,53.0,29.36,SSW,196,6.0,10.0,93,0.14,,-RA,0.66,VWS V14.01,2013-02-26 05:35:00,
2013-02-25 23:40:00,55.0,53.0,29.36,SSW,195,2.0,10.0,93,0.11,,-RA,0.66,VWS V14.01,2013-02-26 05:40:00,
2013-02-25 23:45:00,55.0,53.0,29.37,SW,228,8.0,8.0,93,0.12,,-RA,0.67,VWS V14.01,2013-02-26 05:45:00,
2013-02-25 23:50:00,55.0,53.0,29.36,SSE,148,3.0,10.0,93,0.14,,-RA,0.69,VWS V14.01,2013-02-26 05:50:00,
2013-02-25 23:55:00,55.0,53.0,29.36,SE,140,4.0,9.0,93,0.13,,-RA,0.69,VWS V14.01,2013-02-26 05:55:00,